Белогорский

Казахстан     49°27′02″N   83°04′05″E
темп.,
°C
ветер,
м/с
пор.,
м/с
влажн.,
%
обл.,
%
осадки,
мм/ч
давл.,
гПа
погр.,
м
25 февраля, чт
чт2500:00−5ю2491100 1.6 101698
03:00−6ю3689100 0.3 1016199
06:00−9зсз41295100 1.4 1019967
09:00−13зсз2694100 0.6 1025752
12:00−15з51078100 0.9 10291060
15:00−16юз41074100 0.0 10321265
18:00−19ююз2796100 0.1 1033292
21:00−19ююз31292100 0.3 1034590
26 февраля, пт
пт2600:00−18зюз41196100 0.8 10351384
03:00−22зюз61292100 0.4 10371017
06:00−26зюз1296100 0.4 104120
09:00−26ю238987 0.0 1043106
12:00−21ююз246989 0.0 1043728
15:00−19ююз2368100 0.0 1042887
18:00−23ююв2282100 0.0 104221
21:00−24ю2388100 0.0 104439
27 февраля, сб
сб2700:00−24ююв2288100 0.0 104327
03:00−23ююв2291100 0.0 104328
06:00−25ююв2291100 0.0 104220
09:00−22юв239083 0.0 1042111
12:00−16ююв467878 0.1 1040871
15:00−15ююв4680100 0.1 1039797
18:00−20юв239280 0.1 104020
21:00−20ююв3388100 0.0 104135
28 февраля, вс
вс2800:00−20ююв3386100 0.0 104137
03:00−19ююв3385100 0.0 104044
06:00−19ююв3383100 0.0 104047
09:00−16ююв4977100 0.0 1040400
12:00−13ююв61169100 0.0 1037655
15:00−12ююв61170100 0.0 1034633
18:00−13ююв41078100 0.0 1032394
21:00−13ююв41173100 0.0 1032364
1 марта, пн
пн100:00−13ююв51173100 0.0 1031356
03:00−12ююв41076100 0.0 1029336
06:00−12ююв4878100 0.0 1029291
09:00−10ююв41074100 0.0 1028417
12:00−7ююв51165100 0.0 1026614
15:00−6ююв51070100 0.0 1025634
18:00−9ююв4987100 0.1 1024407
21:00−8ю31089100 0.2 1025450